Location: Fosso Corella
(43.9167°N, 11.5667°E)
Time: 13:25:05
(UTC+00:00)

Cosmos 2221 - Pass Details

Date: 07 June 2020
Orbit: 593 x 615 km, 82.5° (Epoch: 15 July)

Event Time Altitude Azimuth Distance (km) Brightness Sun altitude
Rises 00:30:26 0° 359° (N) 2,882 7.2 -21.0°
Reaches altitude 10° 00:32:49 10° 9° (N) 1,976 6.3 -20.8°
Maximum altitude 00:36:51 35° 76° (ENE) 1,001 3.9 -20.6°
Enters shadow 00:39:29 18° 131° (SE) 1,500 4.3 -20.4°
